MGY47 SBRF-SBJP

Flight info

Callsign MGY47
Flight time N/A
Altitude 5500
Route DCT
Aircraft C172/L-SDE3/STD

Departure

Time 2026-05-06 14:10
Airport Recife/Guararapes - Gilberto Freyre International Airport (SBRF)

Arrival

Time N/A
Airport Presidente Castro Pinto International Airport (SBJP)
Time Latitude Longitude Altitude Speed Heading
2026-05-06 14:02 -8.13644 -34.91799 37 ft 0 kts 72°
2026-05-06 14:05 -8.11598 -34.92708 37 ft 0 kts 161°
2026-05-06 14:08 -8.11796 -34.92641 37 ft 56 kts 161°
2026-05-06 14:08 -8.12286 -34.92476 44 ft 85 kts 161°
2026-05-06 14:09 -8.12850 -34.92282 178 ft 84 kts 161°
2026-05-06 14:09 -8.13222 -34.92151 283 ft 83 kts 161°
2026-05-06 14:09 -8.13760 -34.91961 442 ft 81 kts 161°
2026-05-06 14:09 -8.14315 -34.91766 603 ft 86 kts 161°
2026-05-06 14:10 -8.14869 -34.91519 789 ft 89 kts 138°
2026-05-06 14:10 -8.14941 -34.90938 965 ft 90 kts 58°
2026-05-06 14:10 -8.14388 -34.90698 1171 ft 88 kts
2026-05-06 14:10 -8.13770 -34.90612 1368 ft 89 kts
2026-05-06 14:11 -8.13173 -34.90698 1536 ft 91 kts 319°
2026-05-06 14:11 -8.13073 -34.91282 1721 ft 89 kts 248°
2026-05-06 14:11 -8.13319 -34.91844 1926 ft 87 kts 248°
2026-05-06 14:11 -8.13552 -34.92416 2106 ft 88 kts 248°
2026-05-06 14:12 -8.13789 -34.93000 2286 ft 89 kts 248°
2026-05-06 14:12 -8.14023 -34.93576 2462 ft 89 kts 248°
2026-05-06 14:12 -8.14257 -34.94151 2635 ft 89 kts 248°
2026-05-06 14:12 -8.14490 -34.94725 2808 ft 88 kts 248°
2026-05-06 14:13 -8.14722 -34.95297 2979 ft 88 kts 248°
2026-05-06 14:13 -8.14957 -34.95873 3152 ft 87 kts 248°
2026-05-06 14:13 -8.15186 -34.96439 3322 ft 87 kts 248°
2026-05-06 14:13 -8.15416 -34.96998 3489 ft 86 kts 248°
2026-05-06 14:14 -8.15649 -34.97549 3651 ft 86 kts 248°
2026-05-06 14:14 -8.15896 -34.98116 3779 ft 90 kts 248°
2026-05-06 14:14 -8.16146 -34.98721 3903 ft 94 kts 250°
2026-05-06 14:14 -8.16337 -34.99355 4021 ft 95 kts 258°
2026-05-06 14:15 -8.16500 -35.00014 4135 ft 97 kts 259°
2026-05-06 14:15 -8.16668 -35.00683 4244 ft 98 kts 259°
2026-05-06 14:15 -8.16844 -35.01363 4351 ft 99 kts 259°
2026-05-06 14:15 -8.17021 -35.02037 4454 ft 99 kts 259°
2026-05-06 14:16 -8.17201 -35.02709 4556 ft 99 kts 259°
2026-05-06 14:16 -8.17346 -35.03377 4656 ft 98 kts 263°
2026-05-06 14:16 -8.17484 -35.04058 4757 ft 97 kts 263°
2026-05-06 14:16 -8.17614 -35.04728 4857 ft 97 kts 264°
2026-05-06 14:17 -8.17731 -35.05412 4959 ft 96 kts 265°
2026-05-06 14:17 -8.17846 -35.06071 5058 ft 95 kts 265°
2026-05-06 14:17 -8.17960 -35.06722 5156 ft 94 kts 265°
2026-05-06 14:17 -8.18074 -35.07366 5255 ft 93 kts 264°
2026-05-06 14:18 -8.18187 -35.08003 5353 ft 92 kts 264°
2026-05-06 14:18 -8.18300 -35.08636 5452 ft 90 kts 264°
2026-05-06 14:18 -8.18411 -35.09257 5550 ft 89 kts 264°
2026-05-06 14:18 -8.18521 -35.09878 5649 ft 88 kts 264°
2026-05-06 14:19 -8.18627 -35.10484 5747 ft 87 kts 264°
2026-05-06 14:19 -8.18732 -35.11088 5846 ft 86 kts 264°
2026-05-06 14:19 -8.18832 -35.11679 5944 ft 85 kts 264°
2026-05-06 14:19 -8.18928 -35.12259 6041 ft 83 kts 264°
2026-05-06 14:20 -8.19020 -35.12833 6139 ft 82 kts 264°
2026-05-06 14:20 -8.19103 -35.13376 6232 ft 81 kts 264°
2026-05-06 14:20 -8.19173 -35.13847 6314 ft 80 kts 264°
2026-05-06 14:20 -8.19250 -35.14399 6412 ft 79 kts 264°
2026-05-06 14:21 -8.19323 -35.14954 6492 ft 79 kts 264°
2026-05-06 14:21 -8.19393 -35.15523 6518 ft 84 kts 264°
2026-05-06 14:21 -8.19465 -35.16127 6518 ft 89 kts 264°
2026-05-06 14:21 -8.19538 -35.16755 6511 ft 91 kts 265°
2026-05-06 14:22 -8.19590 -35.17190 6507 ft 93 kts 264°
2026-05-06 14:22 -8.19666 -35.17839 6503 ft 93 kts 264°
2026-05-06 14:22 -8.19744 -35.18500 6501 ft 94 kts 264°
2026-05-06 14:22 -8.19757 -35.18607 6501 ft 94 kts 264°
2026-05-06 14:23 -8.19773 -35.18749 6501 ft 94 kts 264°
2026-05-06 14:23 -8.19851 -35.19406 6500 ft 94 kts 264°
2026-05-06 14:23 -8.19923 -35.20062 6500 ft 94 kts 265°
2026-05-06 14:23 -8.19987 -35.20718 6500 ft 94 kts 265°
2026-05-06 14:24 -8.20052 -35.21381 6500 ft 94 kts 265°
2026-05-06 14:24 -8.20116 -35.22047 6500 ft 94 kts 265°
2026-05-06 14:24 -8.20180 -35.22702 6500 ft 94 kts 265°
2026-05-06 14:24 -8.20243 -35.23358 6500 ft 94 kts 265°
2026-05-06 14:25 -8.20307 -35.24015 6500 ft 94 kts 265°
2026-05-06 14:25 -8.20371 -35.24680 6500 ft 94 kts 265°
2026-05-06 14:25 -8.20435 -35.25337 6500 ft 94 kts 265°
2026-05-06 14:25 -8.20499 -35.25993 6500 ft 94 kts 265°
2026-05-06 14:26 -8.20562 -35.26649 6500 ft 94 kts 265°
2026-05-06 14:26 -8.20625 -35.27303 6500 ft 94 kts 265°
2026-05-06 14:26 -8.20690 -35.27966 6500 ft 94 kts 265°
2026-05-06 14:26 -8.20753 -35.28622 6500 ft 94 kts 265°
2026-05-06 14:27 -8.20817 -35.29279 6500 ft 94 kts 265°
2026-05-06 14:27 -8.20881 -35.29936 6500 ft 94 kts 265°
2026-05-06 14:27 -8.20830 -35.30587 6505 ft 93 kts 282°
2026-05-06 14:27 -8.20728 -35.31009 6507 ft 94 kts 282°
2026-05-06 14:28 -8.20543 -35.31779 6501 ft 94 kts 281°
2026-05-06 14:28 -8.20388 -35.32438 6500 ft 94 kts 281°
2026-05-06 14:28 -8.20236 -35.33088 6500 ft 94 kts 281°
2026-05-06 14:28 -8.20088 -35.33734 6500 ft 94 kts 281°
2026-05-06 14:29 -8.19991 -35.34382 6500 ft 94 kts 273°
2026-05-06 14:29 -8.19989 -35.35042 6500 ft 94 kts 268°
2026-05-06 14:29 -8.20037 -35.35699 6500 ft 94 kts 266°
2026-05-06 14:29 -8.20106 -35.36362 6500 ft 94 kts 265°
2026-05-06 14:30 -8.20184 -35.37017 6500 ft 94 kts 264°
2026-05-06 14:30 -8.20267 -35.37674 6461 ft 97 kts 264°
2026-05-06 14:30 -8.20358 -35.38395 6322 ft 105 kts 265°
2026-05-06 14:30 -8.20455 -35.39148 6176 ft 110 kts 265°
2026-05-06 14:31 -8.20557 -35.39931 6024 ft 114 kts 265°
2026-05-06 14:31 -8.20662 -35.40746 5868 ft 117 kts 266°
2026-05-06 14:31 -8.20770 -35.41578 5707 ft 119 kts 266°
2026-05-06 14:31 -8.20878 -35.42413 5568 ft 120 kts 266°
2026-05-06 14:32 -8.20986 -35.43239 5501 ft 117 kts 266°
2026-05-06 14:32 -8.21090 -35.44036 5489 ft 112 kts 266°
2026-05-06 14:32 -8.21124 -35.44299 5488 ft 111 kts 266°